N3OUC-2 Weather Reports


time (UTC)temp
C
wind
direction
speed
KPH
gust
KPH
rain 1hr
cm
rain 24hr
cm
rain mn
cm
humidity
%
barometer
mb
20260504082004 6 182 0.0 4.8 0.00 0.00 0.00 69 1013.9
20260504081004 6 182 0.0 4.8 0.00 0.00 0.00 67 1013.9
20260504050005 10 195 6.4 16.1 0.00 0.00 0.00 47 1013.7
20260504044005 11 193 3.2 8.0 0.00 0.00 0.00 47 1013.8
20260504043006 11 235 6.4 14.5 0.00 0.00 0.00 45 1013.7
20260504041006 11 238 4.8 14.5 0.00 0.00 0.00 43 1013.5
20260504040005 11 222 9.7 16.1 0.00 0.00 0.00 43 1013.4
20260504035006 11 229 11.3 19.3 0.00 0.00 0.00 43 1013.3
20260504034007 11 234 4.8 20.9 0.00 0.00 0.00 43 1013.1
20260504033006 11 255 6.4 19.3 0.00 0.00 0.00 43 1013.1
20260504031006 11 250 4.8 14.5 0.00 0.00 0.00 44 1013.1
20260504030005 11 228 6.4 16.1 0.00 0.00 0.00 43 1013.0
20260504025006 12 242 4.8 14.5 0.00 0.00 0.00 43 1013.0
20260504024005 12 239 8.0 19.3 0.00 0.00 0.00 43 1013.0
20260504023005 11 224 8.0 20.9 0.00 0.00 0.00 43 1013.2
20260504021005 11 239 8.0 14.5 0.00 0.00 0.00 44 1013.1
20260504020005 11 247 6.4 19.3 0.00 0.00 0.00 44 1013.0
20260504015005 12 181 4.8 19.3 0.00 0.00 0.00 43 1013.1
20260504014005 12 219 8.0 22.5 0.00 0.00 0.00 43 1013.0
20260504011005 11 219 8.0 24.1 0.00 0.00 0.00 44 1012.8
20260504010005 11 205 8.0 19.3 0.00 0.00 0.00 44 1012.8
20260504005005 11 243 8.0 12.9 0.00 0.00 0.00 44 1012.7
20260504004006 11 224 8.0 14.5 0.00 0.00 0.00 45 1012.5
20260504003005 11 223 4.8 8.0 0.00 0.00 0.00 44 1012.4
20260504002005 12 230 1.6 4.8 0.00 0.00 0.00 43 1012.2
20260504001005 12 240 3.2 11.3 0.00 0.00 0.00 42 1012.1
20260504000005 13 217 4.8 16.1 0.00 0.00 0.00 40 1012.0
20260503235005 13 247 9.7 19.3 0.00 0.00 0.00 39 1011.9
20260503234005 13 251 11.3 22.5 0.00 0.00 0.00 38 1011.9
20260503233006 14 269 8.0 22.5 0.00 0.00 0.00 38 1011.8
20260503231005 14 244 6.4 22.5 0.00 0.00 0.00 38 1011.6
20260503230006 15 285 12.9 25.7 0.00 0.00 0.00 35 1011.6
20260503225005 15 254 14.5 32.2 0.00 0.00 0.00 36 1011.6
20260503224005 15 283 14.5 35.4 0.00 0.00 0.00 36 1011.6
20260503223005 15 285 12.9 29.0 0.00 0.00 0.00 35 1011.5
20260503222005 15 274 19.3 29.0 0.00 0.00 0.00 35 1011.6
20260503221005 15 247 11.3 25.7 0.00 0.00 0.00 36 1011.6
20260503215005 15 247 16.1 32.2 0.00 0.00 0.00 35 1011.5
20260503214005 14 254 8.0 29.0 0.00 0.00 0.00 36 1011.5
20260503213005 14 260 14.5 27.4 0.00 0.00 0.00 36 1011.5
20260503211005 15 258 22.5 41.8 0.00 0.00 0.00 31 1011.4
20260503210005 15 291 17.7 35.4 0.00 0.00 0.00 31 1011.3
20260503205005 15 278 20.9 41.8 0.00 0.00 0.00 32 1011.4
20260503204005 15 275 24.1 38.6 0.00 0.00 0.00 32 1011.5
20260503203005 15 281 22.5 35.4 0.00 0.00 0.00 33 1011.6
20260503202005 15 279 22.5 41.8 0.00 0.00 0.00 32 1011.7
20260503201005 15 288 24.1 40.2 0.00 0.00 0.00 34 1011.7
20260503200005 15 291 20.9 32.2 0.00 0.00 0.00 34 1011.9
20260503195005 15 274 16.1 33.8 0.00 0.00 0.00 37 1011.9
20260503193005 14 253 20.9 41.8 0.00 0.00 0.00 36 1012.2
20260503192004 13 278 16.1 38.6 0.00 0.00 0.00 40 1012.3
20260503191006 13 305 20.9 32.2 0.00 0.00 0.00 35 1012.5
20260503190005 13 311 22.5 46.7 0.00 0.00 0.00 35 1012.5
20260503185005 13 305 20.9 32.2 0.00 0.00 0.00 36 1012.6
20260503184005 13 311 11.3 37.0 0.00 0.00 0.00 40 1012.7
20260503183005 13 287 20.9 48.3 0.00 0.00 0.00 37 1012.8
20260503181004 12 268 22.5 40.2 0.00 0.00 0.00 42 1012.9
20260503180005 12 289 16.1 33.8 0.00 0.00 0.00 38 1012.8
20260503175005 12 290 20.9 37.0 0.00 0.00 0.00 39 1013.0
20260503173005 12 287 17.7 37.0 0.00 0.00 0.00 41 1013.1
20260503172005 12 275 24.1 40.2 0.00 0.00 0.00 40 1013.2
20260503171005 12 320 14.5 32.2 0.00 0.00 0.00 41 1013.2
20260503151005 9 317 16.1 27.4 0.00 0.00 0.00 47 1014.1